M I D A S
Marine Information and Data Acquisition System
Tripno 916 of the Zeeleeuw from 2005-06-14 06:20:07 to 2005-06-14 14:56:26
Back to CruiseResearch ActivitiesStationsMapUnderway DataData graphs

EquipmentUnitsComments
TimeDGPSUTC
LatitudeDGPSDM.mWGS84
LongitudeDGPSDM.mWGS84
SpeedMeteo Stationm/sRelative wind speed
DirectionMeteo StationdegRelative wind direction
TemperatureMeteo Stationdeg CelciusAir temperature
PressureMeteo StationPaAtmospheric pressure
HumidityMeteo Station%Relative humidity
Missing or incorrect values are displayed as -999
Metereological data collected by the RV Zeeleeuw from 2005-06-14 06:22:03 to 2005-06-14 15:03:55
Time Latitude Longitude Speed Direction Temperature Pressure Humidity
2005-06-14 06:23 51°13.62 2°56.034 3.4 144 11.3 100880 87
2005-06-14 06:24 51°13.653 2°55.925 2 150 11.3 100880 87
2005-06-14 06:25 51°13.686 2°55.806 5.1 147 11.4 100890 87
2005-06-14 06:26 51°13.696 2°55.76 3.2 155 11.4 100880 87
2005-06-14 06:27 51°13.708 2°55.746 1.2 213 11.3 100890 87
2005-06-14 06:28 51°13.797 2°55.662 2.6 348 11.5 100890 87
2005-06-14 06:29 51°13.932 2°55.577 3.5 326 11.6 100880 87
2005-06-14 06:30 51°14.057 2°55.491 3 324 11.7 100890 87
2005-06-14 06:31 51°14.172 2°55.38 3.8 346 11.8 100880 87
2005-06-14 06:32 51°14.297 2°55.186 7 330 11.9 100880 86
2005-06-14 06:33 51°14.427 2°54.941 8 318 11.9 100870 85
2005-06-14 06:34 51°14.569 2°54.683 8 327 11.9 100880 85
2005-06-14 06:35 51°14.656 2°54.379 9.5 330 11.9 100870 85
2005-06-14 06:36 51°14.684 2°54.055 10.6 335 11.9 100860 86
2005-06-14 06:37 51°14.693 2°53.722 10.4 334 11.9 100870 86
2005-06-14 06:38 51°14.698 2°53.392 10.2 335 11.9 100860 86
2005-06-14 06:39 51°14.716 2°53.053 10.9 335 12 100860 87
2005-06-14 06:40 51°14.693 2°52.737 10.3 341 12 100850 87
2005-06-14 06:41 51°14.648 2°52.591 7.5 337 12.1 100860 87
2005-06-14 06:42 51°14.627 2°52.502 8.2 339 12.1 100870 86
2005-06-14 06:43 51°14.608 2°52.416 7 333 12.1 100880 86
2005-06-14 06:44 51°14.597 2°52.326 6.6 333 12.2 100870 86
2005-06-14 06:45 51°14.596 2°52.235 7 325 12.3 100870 86
2005-06-14 06:46 51°14.599 2°52.145 7.5 331 12.3 100870 85
2005-06-14 06:47 51°14.599 2°52.061 6.6 337 12.4 100870 86
2005-06-14 06:48 51°14.59 2°51.99 7.2 345 12.5 100880 86
2005-06-14 06:49 51°14.574 2°51.931 7.5 351 12.5 100880 85
2005-06-14 06:50 51°14.553 2°51.865 6.7 344 12.5 100880 84
2005-06-14 06:51 51°14.529 2°51.792 7.2 348 12.6 100870 84
2005-06-14 06:52 51°14.505 2°51.72 6.6 348 12.6 100870 84
2005-06-14 06:53 51°14.482 2°51.651 6.9 343 12.7 100880 84
2005-06-14 06:54 51°14.459 2°51.581 6.8 355 12.7 100880 83
2005-06-14 06:55 51°14.436 2°51.511 6.8 342 12.8 100890 83
2005-06-14 06:56 51°14.417 2°51.44 6.6 351 12.8 100890 83
2005-06-14 06:57 51°14.398 2°51.368 6.5 346 12.8 100890 82
2005-06-14 06:58 51°14.38 2°51.296 7 343 12.8 100900 82
2005-06-14 06:59 51°14.361 2°51.227 6.6 337 12.8 100890 82
2005-06-14 07:00 51°14.342 2°51.155 6.7 347 12.8 100890 82
2005-06-14 07:01 51°14.323 2°51.085 6.5 345 12.8 100900 82
2005-06-14 07:02 51°14.303 2°51.013 6.4 340 12.8 100900 82
2005-06-14 07:03 51°14.284 2°50.94 6.7 333 12.9 100890 82
2005-06-14 07:04 51°14.265 2°50.866 7.3 332 12.9 100900 83
2005-06-14 07:05 51°14.246 2°50.793 6.7 328 13 100900 83
2005-06-14 07:06 51°14.227 2°50.72 7.4 328 12.9 100900 82
2005-06-14 07:07 51°14.21 2°50.644 7.6 335 13 100900 83
2005-06-14 07:08 51°14.192 2°50.571 6.7 332 12.9 100900 82
2005-06-14 07:09 51°14.173 2°50.498 6.8 332 13 100900 81
2005-06-14 07:10 51°14.154 2°50.423 6.8 330 13 100900 82
2005-06-14 07:11 51°14.136 2°50.349 6.9 342 13 100900 81
2005-06-14 07:12 51°14.116 2°50.279 7.4 340 13 100900 81
2005-06-14 07:13 51°14.097 2°50.207 7.6 343 13.1 100900 81
2005-06-14 07:14 51°14.078 2°50.136 7.6 341 13.2 100900 81
2005-06-14 07:15 51°14.06 2°50.063 6.8 334 13.2 100900 80
2005-06-14 07:16 51°14.042 2°49.989 7.6 338 13.2 100910 79
2005-06-14 07:17 51°14.023 2°49.914 7.3 340 13.2 100900 80
2005-06-14 07:18 51°14.004 2°49.842 7 345 13.2 100900 79
2005-06-14 07:19 51°13.985 2°49.769 7.5 334 13.3 100900 79
2005-06-14 07:20 51°13.965 2°49.696 7.2 343 13.4 100910 79
2005-06-14 07:21 51°13.947 2°49.62 7.3 342 13.4 100900 79
2005-06-14 07:22 51°13.93 2°49.528 6.5 345 13.5 100900 79
2005-06-14 07:23 51°13.916 2°49.427 6.9 338 13.5 100910 78
2005-06-14 07:24 51°13.914 2°49.319 6.5 321 13.5 100910 77
2005-06-14 07:25 51°13.923 2°49.224 6.6 325 13.5 100910 77
2005-06-14 07:26 51°13.927 2°49.162 6.1 331 13.6 100910 77
2005-06-14 07:27 51°13.932 2°49.118 5.9 323 13.6 100910 77
2005-06-14 07:28 51°13.938 2°49.086 5 322 13.6 100910 77
2005-06-14 07:29 51°13.947 2°49.062 5.7 317 13.7 100910 77
2005-06-14 07:30 51°13.957 2°49.041 6.4 324 13.7 100920 77
2005-06-14 07:31 51°13.927 2°48.911 9.1 355 13.8 100910 76
2005-06-14 07:32 51°13.825 2°48.839 8.3 44 13.8 100910 77
2005-06-14 07:33 51°13.77 2°48.924 5.4 99 13.7 100910 76
2005-06-14 07:34 51°13.776 2°49.006 4 155 13.7 100920 76
2005-06-14 07:35 51°13.816 2°49.066 3.3 171 13.8 100930 77
2005-06-14 07:36 51°13.863 2°49.136 3.5 159 13.7 100920 76
2005-06-14 07:37 51°13.902 2°49.212 4.1 149 13.7 100930 77
2005-06-14 07:38 51°13.931 2°49.281 4.7 135 13.7 100930 77
2005-06-14 07:39 51°13.956 2°49.344 3.4 137 13.8 100930 78
2005-06-14 07:40 51°13.98 2°49.408 4.5 148 13.8 100930 77
2005-06-14 07:41 51°14.003 2°49.474 4.3 140 13.7 100930 76
2005-06-14 07:42 51°14.019 2°49.54 4.2 137 13.7 100930 77
2005-06-14 07:43 51°14.033 2°49.608 3.9 135 13.8 100930 76
2005-06-14 07:44 51°14.043 2°49.676 5.2 131 13.8 100940 76
2005-06-14 07:45 51°14.051 2°49.748 5 126 13.8 100930 75
2005-06-14 07:46 51°14.061 2°49.825 4.1 130 13.9 100940 75
2005-06-14 07:47 51°14.077 2°49.9 4.6 136 13.9 100930 74
2005-06-14 07:48 51°14.097 2°49.975 4.4 141 14 100940 75
2005-06-14 07:49 51°14.115 2°50.053 5 135 14 100940 73
2005-06-14 07:50 51°14.13 2°50.131 4.5 140 14 100940 72
2005-06-14 07:51 51°14.145 2°50.207 4.6 139 14.1 100940 74
2005-06-14 07:52 51°14.158 2°50.28 4.8 150 14.1 100940 74
2005-06-14 07:53 51°14.171 2°50.354 5.1 139 14.1 100930 73
2005-06-14 07:54 51°14.183 2°50.425 4.9 144 14.1 100940 73
2005-06-14 07:55 51°14.196 2°50.498 4.9 144 14.1 100950 73
2005-06-14 07:56 51°14.208 2°50.57 5 147 14.1 100940 73
2005-06-14 07:57 51°14.222 2°50.641 4.9 154 14.1 100950 73
2005-06-14 07:58 51°14.238 2°50.711 4.2 152 14.1 100950 73
2005-06-14 07:59 51°14.258 2°50.779 5 156 14.1 100940 72
2005-06-14 08:00 51°14.277 2°50.848 4.8 152 14.1 100940 72
2005-06-14 08:01 51°14.297 2°50.916 4.8 149 14.2 100950 73
2005-06-14 08:02 51°14.317 2°50.984 5.1 151 14.2 100940 73
2005-06-14 08:03 51°14.336 2°51.052 3.9 151 14.1 100950 72
2005-06-14 08:04 51°14.355 2°51.121 3.8 151 14.2 100950 74
2005-06-14 08:05 51°14.374 2°51.19 4.4 148 14.2 100950 73
2005-06-14 08:06 51°14.392 2°51.258 4.7 153 14.2 100950 73
2005-06-14 08:07 51°14.411 2°51.326 4.7 157 14.3 100940 73
2005-06-14 08:08 51°14.43 2°51.394 5.2 153 14.3 100950 73
2005-06-14 08:09 51°14.448 2°51.463 4.9 146 14.2 100950 71
2005-06-14 08:10 51°14.466 2°51.531 4.6 160 14.3 100950 71
2005-06-14 08:11 51°14.484 2°51.605 4 139 14.4 100950 72
2005-06-14 08:12 51°14.499 2°51.686 4.3 44 14.4 100950 71
2005-06-14 08:13 51°14.511 2°51.772 4.5 132 14.5 100950 72
2005-06-14 08:14 51°14.513 2°51.852 5.5 129 14.5 100950 71
2005-06-14 08:15 51°14.508 2°51.912 5.4 121 14.5 100950 71
2005-06-14 08:16 51°14.497 2°51.956 5.8 114 14.5 100950 72
2005-06-14 08:17 51°14.486 2°51.995 4.9 118 14.5 100950 71
2005-06-14 08:18 51°14.496 2°52.064 3.5 176 14.5 100960 71
2005-06-14 08:19 51°14.523 2°52.099 4.3 230 14.6 100950 71
2005-06-14 08:20 51°14.55 2°52.108 3.4 258 14.6 100950 70
2005-06-14 08:21 51°14.57 2°52.102 5.9 265 14.6 100960 70
2005-06-14 08:22 51°14.586 2°52.091 6.4 284 14.6 100960 70
2005-06-14 08:23 51°14.598 2°52.076 5.2 291 14.6 100950 70
2005-06-14 08:24 51°14.608 2°52.058 5.6 301 14.8 100950 71
2005-06-14 08:25 51°14.618 2°52.034 6.1 228 14.8 100960 71
2005-06-14 08:26 51°14.625 2°52.003 6.9 331 14.9 100960 71
2005-06-14 08:27 51°14.63 2°51.97 5.8 329 14.9 100960 69
2005-06-14 08:28 51°14.629 2°51.937 7.1 354 14.9 100960 70
2005-06-14 08:29 51°14.622 2°51.906 6.4 11 14.9 100960 69
2005-06-14 08:30 51°14.613 2°51.885 6.2 30 14.8 100960 68
2005-06-14 08:31 51°14.605 2°51.878 6.1 40 14.7 100960 68
2005-06-14 08:32 51°14.598 2°51.879 6.3 60 14.6 100960 70
2005-06-14 08:33 51°14.593 2°51.883 6.9 74 14.6 100960 70
2005-06-14 08:34 51°14.588 2°51.891 8.5 87 14.5 100960 67
2005-06-14 08:35 51°14.545 2°51.862 9.1 21 14.4 100960 68
2005-06-14 08:36 51°14.447 2°51.626 14.9 7 14.6 100950 68
2005-06-14 08:37 51°14.369 2°51.296 14.1 3 14.6 100940 66
2005-06-14 08:38 51°14.279 2°50.967 13.9 5 14.6 100960 66
2005-06-14 08:39 51°14.186 2°50.643 14 8 14.7 100950 67
2005-06-14 08:40 51°14.091 2°50.316 14.4 7 14.7 100960 68
2005-06-14 08:41 51°13.996 2°49.986 13.7 8 14.6 100950 65
2005-06-14 08:42 51°13.902 2°49.66 14.5 10 14.7 100960 65
2005-06-14 08:43 51°13.804 2°49.328 15.5 5 14.7 100950 66
2005-06-14 08:44 51°13.707 2°49.001 13.8 11 14.7 100950 64
2005-06-14 08:45 51°13.612 2°48.674 14.3 8 14.7 100960 66
2005-06-14 08:46 51°13.516 2°48.347 14.1 10 14.7 100960 66
2005-06-14 08:47 51°13.419 2°48.014 14.5 12 14.7 100970 67
2005-06-14 08:48 51°13.321 2°47.686 13.5 11 14.7 100960 68
2005-06-14 08:49 51°13.21 2°47.368 15.4 14 14.6 100950 65
2005-06-14 08:50 51°13.1 2°47.055 15.9 12 14.6 100960 64
2005-06-14 08:51 51°12.992 2°46.734 14.2 12 14.7 100960 65
2005-06-14 08:52 51°12.895 2°46.402 13.7 15 14.7 100960 68
2005-06-14 08:53 51°12.799 2°46.074 14.7 14 14.6 100960 69
2005-06-14 08:54 51°12.703 2°45.746 15 16 14.5 100960 69
2005-06-14 08:55 51°12.606 2°45.416 14.2 14 14.5 100950 71
2005-06-14 08:56 51°12.512 2°45.087 14.8 11 14.6 100960 72
2005-06-14 08:57 51°12.427 2°44.75 15.9 20 14.4 100960 72
2005-06-14 08:58 51°12.337 2°44.418 15.7 16 14.3 100960 72
2005-06-14 08:59 51°12.253 2°44.079 15.5 16 14.2 100970 72
2005-06-14 09:00 51°12.166 2°43.746 13.4 18 14.1 100960 72
2005-06-14 09:01 51°12.057 2°43.429 15.4 21 14.1 100950 71
2005-06-14 09:02 51°11.945 2°43.113 15.6 21 14.1 100960 70
2005-06-14 09:03 51°11.837 2°42.8 15.9 19 14.1 100960 71
2005-06-14 09:04 51°11.717 2°42.495 14.9 24 14.1 100970 70
2005-06-14 09:05 51°11.601 2°42.191 14.7 17 14.1 100970 71
2005-06-14 09:06 51°11.492 2°41.874 14 20 14 100960 70
2005-06-14 09:07 51°11.384 2°41.562 15.3 22 14 100970 71
2005-06-14 09:08 51°11.275 2°41.244 13.5 28 14 100960 70
2005-06-14 09:09 51°11.166 2°40.928 15.4 17 14 100980 72
2005-06-14 09:10 51°11.058 2°40.617 15.6 21 14.1 100970 71
2005-06-14 09:11 51°10.948 2°40.301 14.6 19 14 100970 70
2005-06-14 09:12 51°10.84 2°39.986 14.9 25 14 100970 71
2005-06-14 09:13 51°10.732 2°39.672 13 19 14.1 100980 72
2005-06-14 09:14 51°10.619 2°39.355 15.3 25 14 100990 70
2005-06-14 09:15 51°10.525 2°39.147 11.6 29 14 100990 69
2005-06-14 09:16 51°10.478 2°39.02 10 26 14 101000 68
2005-06-14 09:17 51°10.437 2°38.925 10.9 36 14 101000 68
2005-06-14 09:18 51°10.398 2°38.851 9.9 43 13.8 101010 69
2005-06-14 09:19 51°10.366 2°38.781 10 31 13.8 101010 69
2005-06-14 09:20 51°10.339 2°38.711 9 28 13.8 101010 67
2005-06-14 09:21 51°10.316 2°38.64 9.4 27 13.9 101020 69
2005-06-14 09:22 51°10.291 2°38.572 9 35 14 101010 68
2005-06-14 09:23 51°10.263 2°38.507 9.5 32 13.9 101020 70
2005-06-14 09:24 51°10.234 2°38.444 9.7 39 13.9 101020 70
2005-06-14 09:25 51°10.205 2°38.381 9.5 36 13.8 101020 71
2005-06-14 09:26 51°10.175 2°38.318 9 32 13.8 101020 70
2005-06-14 09:27 51°10.146 2°38.252 8.1 34 13.9 101020 72
2005-06-14 09:28 51°10.116 2°38.187 9.7 34 13.9 101030 71
2005-06-14 09:29 51°10.086 2°38.121 9.3 40 13.8 101020 72
2005-06-14 09:30 51°10.056 2°38.053 7.5 28 13.9 101020 73
2005-06-14 09:31 51°10.027 2°37.985 9.3 25 13.9 101020 73
2005-06-14 09:32 51°9.997 2°37.919 10 37 13.9 101020 71
2005-06-14 09:33 51°9.969 2°37.854 8.7 33 13.9 101020 73
2005-06-14 09:34 51°9.941 2°37.79 10 35 13.9 101030 73
2005-06-14 09:35 51°9.913 2°37.728 9.2 31 13.8 101020 71
2005-06-14 09:36 51°9.884 2°37.667 9.9 35 13.8 101030 71
2005-06-14 09:37 51°9.856 2°37.608 11.2 38 13.8 101030 71
2005-06-14 09:38 51°9.828 2°37.55 10.8 31 13.7 101030 70
2005-06-14 09:39 51°9.801 2°37.495 10.9 37 13.7 101030 69
2005-06-14 09:40 51°9.774 2°37.44 8.5 36 13.8 101030 70
2005-06-14 09:41 51°9.748 2°37.383 10.4 32 13.8 101020 70
2005-06-14 09:42 51°9.723 2°37.325 9.2 34 13.8 101030 70
2005-06-14 09:43 51°9.698 2°37.266 8.4 33 13.8 101030 69
2005-06-14 09:44 51°9.672 2°37.204 10.1 34 13.9 101030 71
2005-06-14 09:45 51°9.646 2°37.141 9 29 13.9 101040 72
2005-06-14 09:46 51°9.62 2°37.075 9.7 29 14 101040 73
2005-06-14 09:47 51°9.593 2°37.013 10.9 34 14 101030 71
2005-06-14 09:48 51°9.566 2°36.952 9.2 34 13.9 101030 69
2005-06-14 09:49 51°9.537 2°36.887 10.6 40 13.9 101040 72
2005-06-14 09:50 51°9.504 2°36.817 9.3 30 13.8 101040 70
2005-06-14 09:51 51°9.472 2°36.741 10.9 26 13.8 101040 71
2005-06-14 09:52 51°9.444 2°36.656 11.7 19 13.9 101040 70
2005-06-14 09:53 51°9.417 2°36.544 11.4 15 14 101040 70
2005-06-14 09:54 51°9.392 2°36.401 11.4 12 14.2 101040 71
2005-06-14 09:55 51°9.375 2°36.282 10.8 8 14.1 101050 70
2005-06-14 09:56 51°9.368 2°36.201 10.7 1 14.1 101060 70
2005-06-14 09:57 51°9.365 2°36.144 9.4 352 14.1 101060 69
2005-06-14 09:58 51°9.365 2°36.107 7.7 343 14.2 101060 71
2005-06-14 09:59 51°9.37 2°36.045 11 10 14.2 101050 70
2005-06-14 10:00 51°9.329 2°35.949 9.7 40 14.1 101050 70
2005-06-14 10:01 51°9.265 2°35.848 10.7 43 14.1 101050 74
2005-06-14 10:02 51°9.213 2°35.768 9.5 44 13.8 101050 72
2005-06-14 10:03 51°9.174 2°35.702 9.6 54 13.8 101060 74
2005-06-14 10:04 51°9.142 2°35.647 9.2 46 13.8 101060 75
2005-06-14 10:05 51°9.113 2°35.599 9.2 49 13.8 101060 75
2005-06-14 10:06 51°9.081 2°35.547 9.2 40 13.8 101060 75
2005-06-14 10:07 51°9.049 2°35.488 9.2 35 13.7 101060 73
2005-06-14 10:08 51°9.02 2°35.424 9.3 31 13.7 101060 75
2005-06-14 10:09 51°8.995 2°35.357 10.7 20 13.9 101060 75
2005-06-14 10:10 51°8.972 2°35.286 10.8 25 13.9 101070 72
2005-06-14 10:11 51°8.947 2°35.218 10.1 31 14 101060 69
2005-06-14 10:12 51°8.92 2°35.148 8.9 29 14 101060 70
2005-06-14 10:13 51°8.893 2°35.079 9.6 24 14 101060 71
2005-06-14 10:14 51°8.865 2°35.013 9.2 31 14 101060 70
2005-06-14 10:15 51°8.836 2°34.946 10.5 33 14 101060 70
2005-06-14 10:16 51°8.808 2°34.881 9.1 27 13.9 101060 70
2005-06-14 10:17 51°8.78 2°34.813 9.6 29 13.9 101070 71
2005-06-14 10:18 51°8.754 2°34.745 10.3 22 13.9 101070 73
2005-06-14 10:19 51°8.729 2°34.678 10.4 22 13.9 101070 72
2005-06-14 10:20 51°8.707 2°34.608 9.8 25 14 101060 71
2005-06-14 10:21 51°8.683 2°34.54 10.5 27 14 101060 72
2005-06-14 10:22 51°8.659 2°34.473 9.7 19 14 101070 71
2005-06-14 10:23 51°8.636 2°34.406 9.8 16 14 101070 69
2005-06-14 10:24 51°8.614 2°34.335 9.1 17 14.1 101070 70
2005-06-14 10:25 51°8.59 2°34.245 9.2 18 14.1 101070 71
2005-06-14 10:26 51°8.565 2°34.134 8.9 20 14.1 101070 73
2005-06-14 10:27 51°8.539 2°34.012 10.7 11 14 101070 72
2005-06-14 10:28 51°8.536 2°33.893 9.8 332 14 101070 70
2005-06-14 10:29 51°8.554 2°33.828 8.9 229 14 101070 71
2005-06-14 10:30 51°8.57 2°33.793 9.2 307 14.1 101070 73
2005-06-14 10:31 51°8.579 2°33.768 10.6 304 14.1 101080 74
2005-06-14 10:32 51°8.58 2°33.752 9.6 300 14.2 101070 74
2005-06-14 10:33 51°8.578 2°33.743 9.6 290 14.2 101080 74
2005-06-14 10:34 51°8.582 2°33.732 8.7 290 14.1 101080 72
2005-06-14 10:35 51°8.597 2°33.707 10.3 305 14.2 101080 72
2005-06-14 10:36 51°8.617 2°33.671 9 311 14.2 101070 72
2005-06-14 10:37 51°8.638 2°33.626 8.8 315 14.2 101080 71
2005-06-14 10:38 51°8.659 2°33.576 10.7 326 14.2 101080 71
2005-06-14 10:39 51°8.678 2°33.522 10.5 325 14.2 101070 71
2005-06-14 10:40 51°8.697 2°33.469 8.8 326 14 101070 70
2005-06-14 10:41 51°8.713 2°33.414 10.3 328 14 101070 70
2005-06-14 10:42 51°8.729 2°33.358 11 332 14 101070 71
2005-06-14 10:43 51°8.742 2°33.299 10 338 13.9 101080 71
2005-06-14 10:44 51°8.752 2°33.236 10 338 14 101070 72
2005-06-14 10:45 51°8.76 2°33.173 10.4 347 14 101080 72
2005-06-14 10:46 51°8.764 2°33.115 9.9 350 14.1 101090 73
2005-06-14 10:47 51°8.765 2°33.078 10.1 339 14 101080 72
2005-06-14 10:48 51°8.764 2°33.058 9.5 329 14 101080 72
2005-06-14 10:49 51°8.76 2°33.05 8.9 306 14.1 101080 73
2005-06-14 10:50 51°8.754 2°33.045 10.7 276 14.1 101090 73
2005-06-14 10:51 51°8.749 2°33.041 6.9 261 14.1 101090 73
2005-06-14 10:52 51°8.816 2°33.101 9.7 275 14.1 101100 73
2005-06-14 10:53 51°8.969 2°33.282 7.2 279 14.1 101100 73
2005-06-14 10:54 51°9.13 2°33.486 8.5 274 14 101100 73
2005-06-14 10:55 51°9.29 2°33.698 7.6 277 14 101100 72
2005-06-14 10:56 51°9.44 2°33.923 6.8 285 14.1 101100 72
2005-06-14 10:57 51°9.594 2°34.147 6.2 280 14.1 101100 71
2005-06-14 10:58 51°9.741 2°34.37 7.1 279 14.1 101100 72
2005-06-14 10:59 51°9.892 2°34.597 8.6 281 14.2 101110 72
2005-06-14 11:00 51°10.046 2°34.826 6.8 284 14.2 101100 72
2005-06-14 11:01 51°10.198 2°35.057 8.5 273 14.2 101110 72
2005-06-14 11:02 51°10.361 2°35.267 7.9 289 14.1 101100 71
2005-06-14 11:03 51°10.529 2°35.468 6.7 282 14.1 101100 72
2005-06-14 11:04 51°10.695 2°35.667 7.5 286 14.1 101110 72
2005-06-14 11:05 51°10.864 2°35.867 8 294 14.1 101110 73
2005-06-14 11:06 51°11.032 2°36.064 8.6 281 14.1 101110 74
2005-06-14 11:07 51°11.201 2°36.265 8.6 278 14.1 101110 74
2005-06-14 11:08 51°11.368 2°36.462 7.6 280 14.1 101110 74
2005-06-14 11:09 51°11.533 2°36.66 8.2 283 14.1 101120 74
2005-06-14 11:10 51°11.699 2°36.856 7.6 274 14.1 101110 74
2005-06-14 11:11 51°11.875 2°37.036 9 287 14.1 101120 74
2005-06-14 11:12 51°12.053 2°37.207 7.4 293 14.1 101120 74
2005-06-14 11:13 51°12.231 2°37.377 8.2 283 14.1 101110 75
2005-06-14 11:14 51°12.409 2°37.553 7.4 284 14.1 101120 75
2005-06-14 11:15 51°12.579 2°37.742 7.9 286 14.1 101120 75
2005-06-14 11:16 51°12.747 2°37.938 7 275 14.2 101120 75
2005-06-14 11:17 51°12.922 2°38.124 9 278 14.1 101130 74
2005-06-14 11:18 51°13.107 2°38.289 9 282 14.2 101120 75
2005-06-14 11:19 51°13.29 2°38.454 7.8 288 14.2 101120 75
2005-06-14 11:20 51°13.474 2°38.618 7.8 288 14.2 101120 75
2005-06-14 11:21 51°13.665 2°38.763 9.3 287 14.2 101130 75
2005-06-14 11:22 51°13.871 2°38.833 10.3 307 14.1 101120 75
2005-06-14 11:23 51°14.078 2°38.741 13.7 323 14.1 101100 75
2005-06-14 11:24 51°14.19 2°38.437 15.9 354 14.1 101100 75
2005-06-14 11:25 51°14.183 2°38.074 16.1 23 14.1 101100 75
2005-06-14 11:26 51°14.063 2°37.751 15.8 20 14 101090 75
2005-06-14 11:27 51°13.931 2°37.435 15.7 23 14 101090 75
2005-06-14 11:28 51°13.802 2°37.118 14.1 19 14 101080 75
2005-06-14 11:29 51°13.674 2°36.801 15.9 21 14 101090 75
2005-06-14 11:30 51°13.545 2°36.484 16.3 20 14 101090 75
2005-06-14 11:31 51°13.406 2°36.177 15.8 23 14 101090 75
2005-06-14 11:32 51°13.268 2°35.873 16.6 24 14 101090 76
2005-06-14 11:33 51°13.129 2°35.572 15 24 14 101080 76
2005-06-14 11:34 51°12.99 2°35.275 15.2 24 14 101080 75
2005-06-14 11:35 51°12.852 2°34.98 16.2 25 14 101090 75
2005-06-14 11:36 51°12.709 2°34.689 16 31 14 101090 75
2005-06-14 11:37 51°12.56 2°34.403 15.3 27 14 101100 75
2005-06-14 11:38 51°12.412 2°34.116 15.4 25 14 101090 75
2005-06-14 11:39 51°12.266 2°33.827 16.1 27 14 101110 75
2005-06-14 11:40 51°12.117 2°33.536 15.9 27 14 101100 75
2005-06-14 11:41 51°11.97 2°33.245 15.4 25 14 101090 76
2005-06-14 11:42 51°11.811 2°32.964 14.1 28 14 101110 75
2005-06-14 11:43 51°11.649 2°32.69 14.9 32 14 101100 75
2005-06-14 11:44 51°11.488 2°32.417 14.7 29 14 101100 76
2005-06-14 11:45 51°11.328 2°32.148 14.2 31 13.9 101090 75
2005-06-14 11:46 51°11.179 2°31.898 12.4 32 13.9 101090 74
2005-06-14 11:47 51°11.095 2°31.759 10.8 36 13.9 101120 75
2005-06-14 11:48 51°11.034 2°31.672 10.2 51 13.8 101120 75
2005-06-14 11:49 51°10.983 2°31.599 10.8 40 13.8 101120 77
2005-06-14 11:50 51°10.933 2°31.521 9.2 39 13.7 101120 76
2005-06-14 11:51 51°10.883 2°31.443 10.9 38 13.7 101130 78
2005-06-14 11:52 51°10.837 2°31.363 8.4 43 13.6 101130 77
2005-06-14 11:53 51°10.796 2°31.29 10.2 42 13.7 101130 78
2005-06-14 11:54 51°10.758 2°31.229 10.4 40 13.6 101130 77
2005-06-14 11:55 51°10.722 2°31.178 10.7 48 13.6 101130 76
2005-06-14 11:56 51°10.685 2°31.123 10.4 38 13.6 101130 77
2005-06-14 11:57 51°10.651 2°31.06 9.5 35 13.7 101130 76
2005-06-14 11:58 51°10.618 2°30.991 10.5 26 13.7 101150 76
2005-06-14 11:59 51°10.587 2°30.92 8.5 37 13.8 101140 76
2005-06-14 12:00 51°10.551 2°30.852 9.7 31 13.8 101130 76
2005-06-14 12:01 51°10.517 2°30.791 10.1 41 13.8 101140 76
2005-06-14 12:02 51°10.482 2°30.731 9.5 35 13.7 101140 75
2005-06-14 12:03 51°10.448 2°30.67 10.5 39 13.7 101140 76
2005-06-14 12:04 51°10.413 2°30.613 9.5 36 13.7 101140 76
2005-06-14 12:05 51°10.378 2°30.552 9.8 32 13.7 101150 76
2005-06-14 12:06 51°10.343 2°30.49 10.1 35 13.7 101150 75
2005-06-14 12:07 51°10.308 2°30.429 10.9 33 13.7 101140 74
2005-06-14 12:08 51°10.273 2°30.368 9.4 42 13.8 101140 73
2005-06-14 12:09 51°10.236 2°30.308 9.8 37 13.8 101150 72
2005-06-14 12:10 51°10.198 2°30.251 11.5 29 13.7 101150 73
2005-06-14 12:11 51°10.161 2°30.194 10.7 34 13.7 101150 72
2005-06-14 12:12 51°10.125 2°30.138 11.5 39 13.7 101150 73
2005-06-14 12:13 51°10.086 2°30.08 10.2 34 13.7 101150 73
2005-06-14 12:14 51°10.05 2°30.019 8.7 33 13.7 101150 73
2005-06-14 12:15 51°10.013 2°29.955 9.9 35 13.8 101150 74
2005-06-14 12:16 51°9.974 2°29.895 10.1 40 13.8 101150 74
2005-06-14 12:17 51°9.935 2°29.835 10.8 38 13.7 101150 74
2005-06-14 12:18 51°9.897 2°29.777 9 35 13.7 101150 72
2005-06-14 12:19 51°9.859 2°29.718 9.8 37 13.7 101140 71
2005-06-14 12:20 51°9.822 2°29.657 9.5 35 13.8 101150 71
2005-06-14 12:21 51°9.783 2°29.596 9.9 35 13.9 101160 71
2005-06-14 12:22 51°9.746 2°29.536 9.1 38 13.9 101140 70
2005-06-14 12:23 51°9.707 2°29.471 10.6 33 14 101160 72
2005-06-14 12:24 51°9.667 2°29.398 10.7 37 14 101150 71
2005-06-14 12:25 51°9.622 2°29.323 10.1 39 13.9 101150 70
2005-06-14 12:26 51°9.575 2°29.248 10.9 37 14 101160 72
2005-06-14 12:27 51°9.524 2°29.174 10.5 33 13.9 101150 70
2005-06-14 12:28 51°9.481 2°29.11 9.9 36 13.9 101160 72
2005-06-14 12:29 51°9.448 2°29.07 9 40 13.9 101160 72
2005-06-14 12:30 51°9.396 2°29.041 8.8 105 13.9 101160 71
2005-06-14 12:31 51°9.358 2°29.12 6.3 217 14 101180 72
2005-06-14 12:32 51°9.358 2°29.246 4.1 169 14.1 101180 71
2005-06-14 12:33 51°9.333 2°29.4 6.2 217 14.3 101190 69
2005-06-14 12:34 51°9.364 2°29.528 7.2 229 14.3 101180 68
2005-06-14 12:35 51°9.39 2°29.626 6.3 225 14.3 101190 69
2005-06-14 12:36 51°9.414 2°29.705 8.8 240 14.3 101180 70
2005-06-14 12:37 51°9.446 2°29.758 8.7 239 14.3 101180 71
2005-06-14 12:38 51°9.479 2°29.808 8.4 235 14.4 101190 70
2005-06-14 12:39 51°9.511 2°29.862 7.7 245 14.3 101180 69
2005-06-14 12:40 51°9.544 2°29.916 8 246 14.4 101180 70
2005-06-14 12:41 51°9.574 2°29.974 7.9 240 14.4 101180 69
2005-06-14 12:42 51°9.605 2°30.03 8.4 244 14.4 101180 69
2005-06-14 12:43 51°9.638 2°30.085 6.9 246 14.4 101180 68
2005-06-14 12:44 51°9.671 2°30.137 7.4 248 14.4 101180 70
2005-06-14 12:45 51°9.706 2°30.186 8.1 248 14.5 101180 70
2005-06-14 12:46 51°9.741 2°30.234 6.4 247 14.4 101180 69
2005-06-14 12:47 51°9.775 2°30.288 6.4 250 14.4 101180 69
2005-06-14 12:48 51°9.807 2°30.346 8.1 237 14.4 101180 68
2005-06-14 12:49 51°9.837 2°30.407 8.1 240 14.5 101180 68
2005-06-14 12:50 51°9.868 2°30.468 6.2 244 14.4 101180 67
2005-06-14 12:51 51°9.902 2°30.524 6 254 14.5 101190 68
2005-06-14 12:52 51°9.937 2°30.579 7.6 241 14.5 101180 68
2005-06-14 12:53 51°9.971 2°30.635 6.1 252 14.5 101180 69
2005-06-14 12:54 51°10.005 2°30.692 7.1 245 14.5 101180 69
2005-06-14 12:55 51°10.037 2°30.753 8.4 238 14.5 101180 69
2005-06-14 12:56 51°10.068 2°30.818 8.6 240 14.5 101190 69
2005-06-14 12:57 51°10.098 2°30.883 6.6 243 14.4 101180 70
2005-06-14 12:58 51°10.131 2°30.943 8.5 244 14.4 101180 70
2005-06-14 12:59 51°10.166 2°31.002 6.5 242 14.4 101180 70
2005-06-14 13:00 51°10.201 2°31.061 7.1 240 14.4 101180 71
2005-06-14 13:01 51°10.236 2°31.121 6.5 237 14.4 101180 71
2005-06-14 13:02 51°10.271 2°31.182 8.1 236 14.4 101180 71
2005-06-14 13:03 51°10.306 2°31.242 6.3 244 14.4 101180 71
2005-06-14 13:04 51°10.34 2°31.303 6 245 14.5 101180 73
2005-06-14 13:05 51°10.372 2°31.364 7.6 235 14.4 101190 71
2005-06-14 13:06 51°10.406 2°31.419 7.4 244 14.4 101180 71
2005-06-14 13:07 51°10.441 2°31.476 6 249 14.4 101180 71
2005-06-14 13:08 51°10.476 2°31.531 7.7 246 14.5 101190 73
2005-06-14 13:09 51°10.506 2°31.566 5.7 256 14.4 101190 73
2005-06-14 13:10 51°10.531 2°31.587 8.8 271 14.4 101190 73
2005-06-14 13:11 51°10.635 2°31.623 8.4 289 14.4 101180 74
2005-06-14 13:12 51°10.732 2°31.637 10.7 287 14.5 101180 74
2005-06-14 13:13 51°10.783 2°31.62 9.9 294 14.4 101190 73
2005-06-14 13:14 51°10.812 2°31.604 9.2 296 14.4 101180 73
2005-06-14 13:15 51°10.831 2°31.588 10.4 302 14.4 101190 73
2005-06-14 13:16 51°10.846 2°31.572 9.3 301 14.4 101180 72
2005-06-14 13:17 51°10.858 2°31.553 8.9 310 14.4 101180 73
2005-06-14 13:18 51°10.869 2°31.534 9.1 311 14.4 101190 73
2005-06-14 13:19 51°10.878 2°31.516 9.5 229 14.3 101180 73
2005-06-14 13:20 51°10.885 2°31.499 9.6 313 14.3 101180 73
2005-06-14 13:21 51°10.891 2°31.482 8.3 231 14.3 101180 73
2005-06-14 13:22 51°10.896 2°31.468 9.4 313 14.3 101180 73
2005-06-14 13:23 51°10.901 2°31.455 8.7 312 14.2 101180 73
2005-06-14 13:24 51°10.905 2°31.441 8.9 40 14.3 101180 74
2005-06-14 13:25 51°10.908 2°31.427 8.6 313 14.3 101180 74
2005-06-14 13:26 51°10.908 2°31.421 9.3 302 14.3 101190 75
2005-06-14 13:27 51°10.905 2°31.42 8.3 299 14.3 101190 75
2005-06-14 13:28 51°10.902 2°31.422 9.2 286 14.3 101190 75
2005-06-14 13:29 51°10.898 2°31.426 8.8 275 14.4 101180 74
2005-06-14 13:30 51°10.904 2°31.43 10.3 278 14.5 101180 75
2005-06-14 13:31 51°11.036 2°31.465 9.1 286 14.4 101180 75
2005-06-14 13:32 51°11.205 2°31.643 6 283 14.5 101190 74
2005-06-14 13:33 51°11.355 2°31.874 6.1 272 14.5 101200 73
2005-06-14 13:34 51°11.508 2°32.107 5.2 276 14.6 101200 73
2005-06-14 13:35 51°11.66 2°32.341 6.7 288 14.7 101200 73
2005-06-14 13:36 51°11.811 2°32.576 6.7 291 14.7 101190 73
2005-06-14 13:37 51°11.959 2°32.814 5.6 273 14.8 101190 73
2005-06-14 13:38 51°12.099 2°33.065 5.6 284 14.8 101200 72
2005-06-14 13:39 51°12.237 2°33.314 6.8 264 14.8 101200 72
2005-06-14 13:40 51°12.378 2°33.561 6.5 274 14.8 101210 72
2005-06-14 13:41 51°12.502 2°33.825 4.5 272 14.8 101200 72
2005-06-14 13:42 51°12.623 2°34.101 3.9 254 14.8 101200 72
2005-06-14 13:43 51°12.741 2°34.378 4.1 264 14.7 101210 70
2005-06-14 13:44 51°12.862 2°34.663 3.4 264 14.7 101210 70
2005-06-14 13:45 51°12.978 2°34.944 2.6 255 14.8 101210 71
2005-06-14 13:46 51°13.096 2°35.22 4.5 248 14.8 101210 71
2005-06-14 13:47 51°13.202 2°35.509 2.5 258 14.8 101210 70
2005-06-14 13:48 51°13.304 2°35.804 3.6 239 14.8 101210 70
2005-06-14 13:49 51°13.407 2°36.092 2.8 253 14.9 101210 70
2005-06-14 13:50 51°13.513 2°36.379 3 256 14.8 101210 69
2005-06-14 13:51 51°13.617 2°36.668 4.1 234 14.9 101210 70
2005-06-14 13:52 51°13.722 2°36.962 3.7 269 14.9 101210 69
2005-06-14 13:53 51°13.826 2°37.255 3.4 235 15 101210 69
2005-06-14 13:54 51°13.928 2°37.548 3.9 244 15 101210 69
2005-06-14 13:55 51°14.008 2°37.866 2 253 15 101210 68
2005-06-14 13:56 51°14.08 2°38.191 4 226 15 101210 68
2005-06-14 13:57 51°14.14 2°38.52 1.6 195 14.9 101210 67
2005-06-14 13:58 51°14.164 2°38.862 3.4 157 15 101220 67
2005-06-14 13:59 51°14.173 2°39.207 0.7 159 14.9 101210 65
2005-06-14 14:00 51°14.191 2°39.548 0.7 181 15 101220 67
2005-06-14 14:01 51°14.21 2°39.892 1.6 179 15.1 101210 68
2005-06-14 14:02 51°14.226 2°40.237 0.7 156 15.3 101210 68
2005-06-14 14:03 51°14.246 2°40.588 1.2 174 15.4 101210 68
2005-06-14 14:04 51°14.269 2°40.934 1.7 148 15.4 101210 67
2005-06-14 14:05 51°14.289 2°41.281 0.9 165 15.4 101210 66
2005-06-14 14:06 51°14.308 2°41.622 1.3 175 15.6 101210 67
2005-06-14 14:07 51°14.331 2°41.965 1.3 221 15.7 101210 66
2005-06-14 14:08 51°14.352 2°42.308 0.6 185 15.8 101210 66
2005-06-14 14:09 51°14.371 2°42.657 0.2 152 16 101210 67
2005-06-14 14:10 51°14.392 2°43.008 2.5 165 16.1 101210 64
2005-06-14 14:11 51°14.41 2°43.353 2.3 179 15.9 101210 63
2005-06-14 14:12 51°14.431 2°43.703 1.7 168 15.6 101210 63
2005-06-14 14:13 51°14.452 2°44.044 1.4 201 15.7 101220 65
2005-06-14 14:14 51°14.474 2°44.383 1.5 234 15.8 101220 66
2005-06-14 14:15 51°14.497 2°44.729 0.2 247 15.9 101220 67
2005-06-14 14:16 51°14.52 2°45.074 2 216 16.1 101220 67
2005-06-14 14:17 51°14.534 2°45.417 2.1 209 16.2 101220 64
2005-06-14 14:18 51°14.537 2°45.761 2.2 227 16 101220 63
2005-06-14 14:19 51°14.55 2°46.11 1.1 170 15.9 101220 64
2005-06-14 14:20 51°14.558 2°46.458 0.3 191 15.9 101210 65
2005-06-14 14:21 51°14.568 2°46.809 1.3 153 16.1 101220 67
2005-06-14 14:22 51°14.578 2°47.158 1.9 222 16.3 101220 66
2005-06-14 14:23 51°14.591 2°47.503 1.2 226 16.3 101220 65
2005-06-14 14:24 51°14.601 2°47.853 1 160 16.4 101220 65
2005-06-14 14:25 51°14.606 2°48.206 0.6 218 16.7 101230 65
2005-06-14 14:26 51°14.618 2°48.558 0.8 214 16.9 101230 65
2005-06-14 14:27 51°14.623 2°48.906 1.6 203 16.9 101230 64
2005-06-14 14:28 51°14.633 2°49.255 1.6 186 16.9 101220 64
2005-06-14 14:29 51°14.643 2°49.6 1.2 130 16.9 101230 63
2005-06-14 14:30 51°14.65 2°49.948 1.4 228 16.8 101230 63
2005-06-14 14:31 51°14.662 2°50.287 2 154 16.8 101230 63
2005-06-14 14:32 51°14.673 2°50.63 1.6 179 16.6 101230 62
2005-06-14 14:33 51°14.678 2°50.979 1.1 166 16.6 101230 63
2005-06-14 14:34 51°14.688 2°51.324 1.8 227 16.6 101230 65
2005-06-14 14:35 51°14.699 2°51.672 1.8 241 16.7 101230 64
2005-06-14 14:36 51°14.708 2°52.019 1 254 16.7 101230 64
2005-06-14 14:37 51°14.715 2°52.363 1.4 241 16.7 101230 63
2005-06-14 14:38 51°14.703 2°52.675 2.9 172 16.5 101230 63
2005-06-14 14:39 51°14.694 2°52.962 1.5 200 16.4 101230 63
2005-06-14 14:40 51°14.688 2°53.253 2.4 202 16.3 101230 62
2005-06-14 14:41 51°14.681 2°53.465 2 188 16.2 101230 64
2005-06-14 14:42 51°14.674 2°53.643 2.4 199 16.5 101230 63
2005-06-14 14:43 51°14.662 2°53.81 3.9 188 16.6 101230 64
2005-06-14 14:44 51°14.646 2°53.982 3.8 167 16.3 101230 65
2005-06-14 14:45 51°14.628 2°54.163 3.7 180 16.1 101230 66
2005-06-14 14:46 51°14.605 2°54.363 4.6 165 15.7 101240 66
2005-06-14 14:47 51°14.56 2°54.563 5.8 138 15.5 101230 68
2005-06-14 14:48 51°14.489 2°54.742 6.4 140 15.4 101230 69
2005-06-14 14:49 51°14.426 2°54.906 6.2 133 15.3 101230 68
2005-06-14 14:50 51°14.374 2°55.045 6.1 141 15.2 101230 69
2005-06-14 14:51 51°14.333 2°55.149 7.4 134 15.2 101230 70
2005-06-14 14:52 51°14.29 2°55.219 5.6 155 15.1 101220 70
2005-06-14 14:53 51°14.256 2°55.272 5.7 125 15.1 101230 70
2005-06-14 14:54 51°14.224 2°55.32 6.9 135 15.2 101230 71
2005-06-14 14:55 51°14.152 2°55.418 6.9 117 15.3 101230 70
2005-06-14 14:56 51°14.043 2°55.498 4.9 57 15.4 101230 69
2005-06-14 14:57 51°13.927 2°55.575 5 74 15.5 101230 66
2005-06-14 14:58 51°13.831 2°55.639 3.9 79 15.6 101230 65
2005-06-14 14:59 51°13.745 2°55.732 3.2 121 15.6 101230 65
2005-06-14 15:00 51°13.679 2°55.859 2.6 201 15.7 101230 64
2005-06-14 15:01 51°13.638 2°55.966 6.8 169 15.8 101230 64
2005-06-14 15:02 51°13.612 2°56.056 3.6 171 15.7 101230 64
2005-06-14 15:03 51°13.599 2°56.109 6.2 182 15.7 101230 65